Погода в Мариинске

Погода в Мариинске : погода сейчас, прогноз погоды и архив. Всё, что Вы хотите узнать о погоде в Мариинске!

Хотите узнать прогноз погоды в Мариинске? Тогда Вам сюда: Погода в Мариинске

Поиск расширенной информации на нашем сайте:

Другие новости

Новости СМИ2

Главная страница сайта

Новости сайта

02.10.2013

Напоминаем, что на нашем новом сайте вы можете получить высокодетализированные прогнозы погоды по пунктам России, СНГ и мира (включающие важные для авиации метеовеличины, такие как направление и скорость ветра, видимость, явления погоды, количество и форма облачности, нижняя и верхняя граница облачности), а также ознакомиться с разнообразными материалами по авиационной метеорологии и подборкой полезных ссылок на эту тему.

Сайт Метеоцентр.Азия посвящён разработке технологий оптимизации авиаметеорологического обслуживания, включая проектирование и перспективное создание нескольких автоматизированных авиаметеорологических систем:
- система выпуска высокодетальных прогностических карт явлений погоды для нижнего воздушного пространства по России и ближнему зарубежью;
- система верификации прогнозов TAF (выпускаемых синоптиками официальных АМСГ РФ и ближнего зарубежья) и AUTOTAF (выпускаемых сайтом Метеоцентр.Азия) - выявление ошибок, онлайн-сопоставление с фактической погодой METAR, автоматическое внесение коррективов в прогнозы при резком отклонении фактической погоды от прогноза, подсчёт оправдываемости прогнозов по элементам и в целом;
- система обработки, анализа и отображения авиаметеорологической информации для применения провайдерами метеорологической информации.

Рекомендуем: затонировать авто в москве

Погода в Мариинске - сегодня

Время (UTC), дата Ветер
(°,м/с) 
Видим.   Явления Облачность Т
(°С)
Тd
(°С)
f(%) Тe
(°С)
Pmin
(гПа)
dP
(гПа)
Po
(мм)
O2
(г/м3)
Тmin Tmax R s Состояние
почвы
18 27.03.17 190 (Ю) 20000 м    10/10 600 м кучево-дожд. 
[Cb calv]
+2.8 -1.1 75 +1  1020.3  1.3  752  300           
21 27.03.17 210 (ЮЗ) 20000 м    10/10 600 м кучево-дожд. 
[Cb calv]
+1.9 -0.9 82 1022.2  1.9  753  301           
00 28.03.17 220 (ЮЗ) 4{10}  18000 м    10/10 600 м кучево-дожд. 
[Cb calv]
+1.1 -1.8 81 -1  1024.7  2.3  755  303  +1      мокрый или
старый снег
50-90% 
03 28.03.17 180 (Ю) 20000 м    10/8 600 м кучево-дожд., средняя 
[Cb calv|As op]
+2 -1.4 78 +1  1024.8  0.2  755  302  +0.9         
06 28.03.17 190 (Ю) 20000 м    10/8 600 м кучево-дожд., средняя 
[Cb calv|As op]
+3.6 -0.4 75 +2  1024.3  -0.4  755  300           
09 28.03.17 180 (Ю) 20000 м    10/4 600 м кучево-дожд., верхняя 
[Cb calv|Ci sp]
+4.8 +0.1 72 +3  1023.9  -0.4  754  299           
12 28.03.17 190 (Ю) 20000 м    10/6 600 м кучево-дожд., средняя 
[Cb calv|As trans]
+4.1 +1 80 +4  1024  0.1  755  299    +5.3       
15 28.03.17 тихо ()   20000 м    10/4 600 м кучево-дожд., верхняя 
[Cb calv|Ci sp]
+3 +1.5 90 +3  1022.3  -1.6  753  300           
18 28.03.17 100 (В) 20000 м    10/6 600 м кучево-дожд., верхняя 
[Cb calv|Ci sp]
+3 +1.5 90 +2  1021.2  -1.1  752  300           
21 28.03.17 тихо ()   20000 м    10/8 600 м кучево-дожд., верхняя 
[Cb calv|Ci sp]
+3.5 +1.7 88 +4  1020.1  -1.1  752  299           
00 29.03.17 тихо ()   20000 м    10/4 600 м кучево-дожд., верхняя 
[Cb calv|Ci sp]
+3 +1.2 88 +3  1020.1  752  299  +1.8      мокрый или
старый снег
50-90% 
03 29.03.17 090 (В) 20000 м    10/0 верхняя 
[Ci fib]
+6.4 +0.2 64 +7  1018.1  -1.9  750  295           
06 29.03.17 210 (ЮЗ) 20000 м    10/0 верхняя 
[Ci fib]
+10.3 -1.8 43 +10  1016  -1.7  749  291           
09 29.03.17 180 (Ю) 20000 м    10/0 верхняя 
[Ci sp]
+12.9 -1.6 37 +12  1013.8  -2.1  747  288           
12 29.03.17 180 (Ю) 3{10}  20000 м    10/0 средняя, верхняя 
[Ac trans|Ci fib]
+11.6 -1.5 40 +11  1012.4  -1.4  746  289    +13       
15 29.03.17 170 (Ю) 20000 м    9/0 средняя, верхняя 
[Ac trans|Ci fib]
+9 +0 53 +8  1012.7  0.1  746  291           
18 29.03.17 210 (ЮЗ) 4{10}  20000 м    10/3 600 м кучево-дожд., верхняя 
[Cb calv|Ci sp]
+7.4 +2.6 72 +6  1014.3  1.5  748  293           
21 29.03.17 тихо ()   10 км  слаб. ливневой дождь  10/10 600 м кучево-дожд. 
[Cb calv]
+4.7 +3.7 93 +5  1015.8  1.3  749  296           
00 30.03.17 тихо ()   4000 м  дымка{ливн. осадки}  10/8 600 м кучево-дожд., средняя 
[Cb calv|As op]
+4.4 +3.4 93 +4  1015.4  -0.4  748  296  +4    мокрый или
старый снег
50-90% 
03 30.03.17 тихо ()   20000 м    10/5 600 м кучево-дожд., верхняя 
[Cb calv|Ci fib]
+4.9 +3.5 91 +5  1014.1  -1.3  747  295           
06 30.03.17 090 (В) 20000 м  {ливн. осадки}  10/10 600 м кучево-дожд. 
[Cb calv]
+8.9 +5.4 79 +8  1011.6  -2.1  746  290           
09 30.03.17 080 (В) 20000 м  {ливн. осадки}  10/4 600 м кучево-дожд., средняя 
[Cb calv|As op]
+10.1 +4.8 70 +11  1008.5  -3  743  288           
12 30.03.17 110 (В) 20000 м  {ливн. осадки}  10/5 600 м кучево-дожд., средняя 
[Cb calv|Ac As]
+10.4 +1.9 56 +11  1004.6  -3.9  740  287    +10.5  0.0     
15 30.03.17 100 (В) 20000 м    10/10 600 м кучево-дожд. 
[Cb calv]
+8.4 +0.7 58 +8  1001  -3.6  738  288           
18 30.03.17 190 (Ю) 9-13{19}  10 км  слаб. ливневой дождь  10/10 600 м кучево-дожд. 
[Cb calv]
+5.1 +1 75 +2  1003.2  1.9  739  292           
Время (UTC), дата Ветер
(°,м/с) 
Видим.   Явления Облачность Т
(°С)
Тd
(°С)
f(%) Тe
(°С)
Pmin
(гПа)
dP
(гПа)
Po
(мм)
O2
(г/м3)
Тmin Tmax R s Состояние
почвы

Для получения пояснительной информации подведите курсор к названию столбца.

ПОГОДА в Мариинске - архив

Всё, что Вы хотите узнать о погоде в Мариинске - удобно и подробно!

Выберите нужную дату (начиная с 1 января 2015* года) и нажмите кнопку "Найти".
Будут отображены архивные сводки погоды по пункту Мариинск, начиная с указанной даты.


Отображать данные в формате CSV (для использования в таблицах Excel)


Внимание! Наш архив погоды предназначен исключительно для личного некоммерческого использования в познавательных целях. Если Вам необходимы официальные справки о состоянии погоды (для производственных, юридических, коммерческих и т.п. целей), обращайтесь в органы Росгидромета.

*Примечание: данная дата относится к архиву по метеостанциям СССР (Россия, СНГ, Балтия).
Архив по метеостанциям Зарубежной Европы и Азии (кроме Китая) хранится 10 дней, по другим регионам земного шара (Китай, Африка, Америка, Австралия, Океания) - 1 день.

Мариинск - район местоположения метеостанции


Название, широта, долгота, высота метеостанции:
Мариинск 56.2°ш. 87.8°д. 140 м над ур. моря [Российская Федерация]

Дополнительная информация

В oтличие oт бoльшинства пoгoдных сайтoв мы публикуем пoдрoбную метеoинфoрмацию в детальнoм прoфессиoнальнoм фoрмате.

Характеристики температуры и влажнoсти вoздуха измеряются на высoте 2 м в тени вдали oт зданий и деревьев.
Скoрoсть ветра измеряется на высoте 10 м (на урoвне рoста челoвека скoрoсть ветра ниже в 1.5-2 раза). Если метеoстанция нахoдится в гoрoде или в лесу, тo скoрoсть ветра занижена на 2-4 м/с пo сравнению с oткрытым местoм. Скoрoсть ветра над акватoриями крупных рек и oзёр, а также на вершинах хoлмoв на 2-5 м/с выше, чем в oбычных услoвиях.
Атмoсфернoе давление в разных тoчках местнoсти мoжет значительнo oтличаться oт давления на метеoстанции, в зависимoсти oт услoвий рельефа (при пoдъёме на 10 м давление пoнижается примернo на 1 мм рт.ст.).